Regional Weather Roundup
Issued by NWS

Home | Current Version | Previous Version | Text Only | Print | Product List | Glossary Off
Versions: 1 2 3 4 5 6 7 8 9 10 11 12 13 14 15 16 17 18 19 20 21 22 23 24 25 26 27 28 29 30 31 32 33 34 35 36 37 38 39 40 41 42 43 44 45 46 47 48 49 50

000
ASUS43 KTOP 120008
RWRKS

WEATHER ROUNDUP FOR KANSAS
NATIONAL WEATHER SERVICE GOODLAND KS
700 PM CDT FRI JUL 11 2014

NOTE:  "FAIR" INDICATES FEW OR NO CLOUDS BELOW 12,000 FEET WITH NO
SIGNIFICANT WEATHER AND/OR OBSTRUCTIONS TO VISIBILITY.

KSZ001>006-013>018-027>032-041>047-120100-
NORTHWEST KANSAS

CITY           SKY/WX    TMP DP  RH WIND       PRES   REMARKS
GOODLAND       SUNNY     94  49  21 S28G37    29.94S
6HR MIN TEMP:  89; 6HR MAX TEMP:  98;

HAYS           SUNNY     93  55  27 S23G29    29.95S
HILL CITY      SUNNY     96  57  27 S18G30    29.91F HX  95
6HR MIN TEMP:  96; 6HR MAX TEMP: 101;

RUSSELL        SUNNY     92  64  39 S17       29.94F
6HR MIN TEMP:  90; 6HR MAX TEMP:  95;

$$

KSZ061>065-074>080-084>089-120100-
SOUTHWEST KANSAS

CITY           SKY/WX    TMP DP  RH WIND       PRES   REMARKS
DODGE CITY     SUNNY     91  54  28 S22G31    29.99F
6HR MIN TEMP:  91; 6HR MAX TEMP:  94;

ELKHART          N/A     92  53  26 S18         N/A
GARDEN CITY    SUNNY     91  54  28 S20G30    29.98S
6HR MIN TEMP:  91; 6HR MAX TEMP:  95;

GREAT BEND     SUNNY     91  63  38 S18G28    29.95F
LIBERAL        SUNNY     93  54  26 S25G32    30.01S
PRATT          SUNNY     90  61  37 S13       30.01S
$$

KSZ066>073-081>083-090>101-120100-
SOUTHEAST KANSAS

CITY           SKY/WX    TMP DP  RH WIND       PRES   REMARKS
CHANUTE        SUNNY     88  69  53 S12       30.04S
6HR MIN TEMP:  88; 6HR MAX TEMP:  92;

COFFEYVILLE    SUNNY     89  70  53 S13       30.03S
6HR MIN TEMP:  88; 6HR MAX TEMP:  92;

HUTCHINSON     SUNNY     93  64  38 S14       29.98F
6HR MIN TEMP:  92; 6HR MAX TEMP:  95;

MEDICINE LODGE   N/A     92  61  35 S12G24    29.98S
NEWTON         SUNNY     91  63  38 S16G24    30.04S
PARSONS        SUNNY     89  71  55 S8        30.05S HX  95
6HR MIN TEMP:  88; 6HR MAX TEMP:  91;

WICHITA INTL   MOSUNNY   90  64  42 S16       29.99F
6HR MIN TEMP:  89; 6HR MAX TEMP:  93;

WICHITA JABRA  SUNNY     88  67  49 S10       30.00F
6HR MIN TEMP:  88; 6HR MAX TEMP:  92;

WICHITA MCCONL SUNNY     89  65  44 S15       30.01S
WINFIELD       SUNNY     89  66  46 S12       30.02F
6HR MIN TEMP:  89; 6HR MAX TEMP:  92;

$$

KSZ007>012-019>026-033>040-048>060-102>105-120100-
NORTHEAST KANSAS

CITY           SKY/WX    TMP DP  RH WIND       PRES   REMARKS
CONCORDIA      SUNNY     92  67  43 S17       29.94S HX  95
6HR MIN TEMP:  87; 6HR MAX TEMP:  97;

EMPORIA        SUNNY     89  67  47 S14G22    30.01S
6HR MIN TEMP:  88; 6HR MAX TEMP:  93;

LAWRENCE       MOSUNNY   90  73  57 S7        29.98F HX  98
6HR MIN TEMP:  83; 6HR MAX TEMP:  92;

MANHATTAN      SUNNY     95  67  39 S16G23    29.95S HX  99
6HR MIN TEMP:  91; 6HR MAX TEMP:  99;

MARYSVILLE     SUNNY     91  68  46 S12       29.94S HX  95
OLATHE IND     MOSUNNY   90  76  63 S10       30.01F HX 101
6HR MIN TEMP:  84; 6HR MAX TEMP:  90;

OLATHE EXE     MOSUNNY   85  75  72 S8        30.01S
6HR MIN TEMP:  82; 6HR MAX TEMP:  88;

SALINA         MOSUNNY   94  64  37 S12G22    29.95F HX  95
6HR MIN TEMP:  91; 6HR MAX TEMP:  99;

TOPEKA BILLARD MOSUNNY   93  73  52 S12       29.97F HX 102
6HR MIN TEMP:  87; 6HR MAX TEMP:  94;

TOPEKA FORBES  PTSUNNY   92  71  50 S13       29.98F HX  98
6HR MIN TEMP:  84; 6HR MAX TEMP:  94;

$$



USA.gov is the U.S. government's official web portal to all federal, state and local government web resources and services.